Location: Dakoming
(43.5975°N, 104.0727°W)
Time: 00:31:59
(UTC+00:00)

N. Korean satellite - Visible Passes

Search period start: 27 January 2022 00:00
Search period end: 06 February 2022 00:00
Orbit: 447 x 490 km, 97.3° (Epoch: 26 January)

Date Brightness Start Highest point End Pass type
(mag) Time Alt. Az. Time Alt. Az. Time Alt. Az.
27 Jan 8.6 11:35:36 10° NE 11:38:45 27° E 11:39:00 27° ESE visible
27 Jan 7.9 13:09:01 10° NNW 13:11:44 20° WNW 13:13:03 17° W visible
28 Jan 9.8 11:07:40 10° ENE 11:09:19 13° E 11:09:56 12° ESE visible
28 Jan 6.9 12:39:12 10° N 12:42:41 43° WNW 12:44:00 29° WSW visible
29 Jan 6.6 12:09:50 10° NNE 12:13:29 78° E 12:14:58 34° S visible
30 Jan 8.3 11:40:53 10° NNE 11:44:10 32° E 11:45:59 20° SE visible
30 Jan 8.1 13:14:35 10° NNW 13:17:03 18° WNW 13:19:31 10° WSW visible
31 Jan 9.6 11:12:37 10° ENE 11:14:42 15° E 11:16:46 10° SE visible
31 Jan 7.1 12:44:36 10° N 12:47:59 37° WNW 12:51:10 11° SW visible
01 Feb 6.4 12:15:08 10° NNE 12:18:47 89° WNW 12:22:22 10° SSW visible
02 Feb 8.0 11:46:02 10° NNE 11:49:26 37° E 11:52:46 10° SSE visible
02 Feb 8.2 13:20:03 10° NNW 13:22:14 15° WNW 13:24:25 10° WSW visible
03 Feb 9.5 11:17:32 10° NE 11:19:56 17° E 11:22:18 10° SE visible
03 Feb 7.3 12:49:53 10° N 12:53:09 32° WNW 12:56:22 10° SW visible
04 Feb 6.4 12:20:17 10° N 12:23:55 77° WNW 12:27:29 10° SSW visible
05 Feb 7.7 11:51:04 10° NNE 11:54:32 43° E 11:57:57 10° S visible
05 Feb 8.4 13:25:27 10° NW 13:27:17 14° WNW 13:29:06 10° W visible
